Estación de Santa María
Ultimos registro cada 15 minutos 71
| N° | Estación | Fecha / Hora | Temperatura | Humedad | Lluvia | Velocidad | Dirección | Radiación | Presion |
| 71 | Santa María | 03-09-2026 17:30 | 20,5 | 54,1 | 0 | 1 | 327 | 235,6 | 936,3 |
| 70 | Santa María | 03-09-2026 17:15 | 21,2 | 52,5 | 0 | 0,5 | 312 | 249,4 | 936,3 |
| 69 | Santa María | 03-09-2026 17:00 | 22,5 | 50,5 | 0 | 0,5 | 310 | 100,6 | 936,2 |
| 68 | Santa María | 03-09-2026 16:45 | 22,5 | 47,9 | 0 | 0,5 | 295 | 363,1 | 936,2 |
| 67 | Santa María | 03-09-2026 16:30 | 22,2 | 46,3 | 0 | 0,5 | 300 | 383,1 | 936,2 |
| 66 | Santa María | 03-09-2026 16:15 | 23,3 | 44 | 0 | 0,5 | 300 | 428,1 | 936 |
| 65 | Santa María | 03-09-2026 16:00 | 23,3 | 43,2 | 0 | 1 | 317 | 478,1 | 936,1 |
| 64 | Santa María | 03-09-2026 15:45 | 23,2 | 42,8 | 0 | 1 | 309 | 520,6 | 936,1 |
| 63 | Santa María | 03-09-2026 15:30 | 23,7 | 42,3 | 0 | 0,5 | 274 | 561,9 | 936,1 |
| 62 | Santa María | 03-09-2026 15:15 | 23,5 | 40,1 | 0 | 1 | 229 | 604,4 | 936,1 |
| 61 | Santa María | 03-09-2026 15:00 | 23,5 | 40,3 | 0 | 0,5 | 307 | 639,4 | 936,2 |
| 60 | Santa María | 03-09-2026 14:45 | 23,5 | 41 | 0 | 1 | 305 | 671,9 | 936,3 |
| 59 | Santa María | 03-09-2026 14:30 | 23,6 | 41,9 | 0 | 1 | 302 | 699,4 | 936,3 |
| 58 | Santa María | 03-09-2026 14:15 | 24 | 40,9 | 0 | 0,5 | 286 | 731,9 | 936,3 |
| 57 | Santa María | 03-09-2026 14:00 | 23,1 | 39 | 0 | 0,5 | 263 | 758,1 | 936,6 |
| 56 | Santa María | 03-09-2026 13:45 | 23,7 | 39,6 | 0 | 0,5 | 326 | 774,4 | 936,6 |
| 55 | Santa María | 03-09-2026 13:30 | 23,3 | 40,7 | 0 | 0,5 | 295 | 796,9 | 936,9 |
| 54 | Santa María | 03-09-2026 13:15 | 22,5 | 40,5 | 0 | 0,5 | 295 | 806,9 | 937,2 |
| 53 | Santa María | 03-09-2026 13:00 | 21,9 | 43,6 | 0 | 0,5 | 306 | 810,6 | 937,4 |
| 52 | Santa María | 03-09-2026 12:45 | 22,1 | 41,5 | 0 | 0,5 | 303 | 814,4 | 937,6 |
| 51 | Santa María | 03-09-2026 12:30 | 21 | 47,9 | 0 | 0,5 | 303 | 814,4 | 937,7 |
| 50 | Santa María | 03-09-2026 12:15 | 21,1 | 41,6 | 0 | 0,5 | 298 | 808,1 | 937,9 |
| 49 | Santa María | 03-09-2026 12:00 | 21 | 48,2 | 0 | 0 | 257 | 794,4 | 938 |
| 48 | Santa María | 03-09-2026 11:45 | 20,5 | 49,5 | 0 | 0 | 295 | 778,1 | 938,1 |
| 47 | Santa María | 03-09-2026 11:30 | 19,2 | 52,3 | 0 | 0 | 292 | 756,9 | 938,3 |
| 46 | Santa María | 03-09-2026 11:15 | 19,4 | 49,4 | 0 | 0,5 | 313 | 734,4 | 938,5 |
| 45 | Santa María | 03-09-2026 11:00 | 18,9 | 56,6 | 0 | 0 | 256 | 710,6 | 938,7 |
| 44 | Santa María | 03-09-2026 10:45 | 18,4 | 56,6 | 0 | 0 | 257 | 681,9 | 938,9 |
| 43 | Santa María | 03-09-2026 10:30 | 17,9 | 56,5 | 0 | 0 | 268 | 650,6 | 938,6 |
| 42 | Santa María | 03-09-2026 10:15 | 17,4 | 59,8 | 0 | 0 | 314 | 613,1 | 938,8 |
| 41 | Santa María | 03-09-2026 10:00 | 17,8 | 57 | 0 | 0 | 10 | 574,4 | 938,8 |
| 40 | Santa María | 03-09-2026 09:45 | 17,1 | 61,4 | 0 | 0 | 24 | 533,1 | 939,1 |
| 39 | Santa María | 03-09-2026 09:30 | 15,8 | 62,7 | 0 | 0 | 31 | 486,9 | 939,2 |
| 38 | Santa María | 03-09-2026 09:15 | 15,3 | 61,5 | 0 | 0 | 45 | 429,4 | 939,2 |
| 37 | Santa María | 03-09-2026 09:00 | 13,7 | 64,9 | 0 | 0 | 39 | 393,1 | 939,1 |
| 36 | Santa María | 03-09-2026 08:45 | 12,8 | 68,8 | 0 | 0 | 38 | 343,1 | 939 |
| 35 | Santa María | 03-09-2026 08:30 | 10,4 | 76,5 | 0 | 0 | 65 | 33,1 | 939,2 |
| 34 | Santa María | 03-09-2026 08:15 | 9,6 | 77,2 | 0 | 0 | 67 | 166,9 | 939,2 |
| 33 | Santa María | 03-09-2026 08:00 | 7,2 | 84,9 | 0 | 0 | 72 | 51,9 | 939,1 |
| 32 | Santa María | 03-09-2026 07:45 | 6,6 | 86,5 | 0 | 0 | 72 | 16,9 | 939,1 |
| 31 | Santa María | 03-09-2026 07:30 | 6,6 | 86,7 | 0 | 0 | 72 | 11,9 | 939 |
| 30 | Santa María | 03-09-2026 07:15 | 6,3 | 86,8 | 0 | 0 | 72 | 5,6 | 939 |
| 29 | Santa María | 03-09-2026 07:00 | 6,1 | 88,4 | 0 | 0 | 70 | 1,9 | 938,9 |
| 28 | Santa María | 03-09-2026 06:45 | 5,5 | 89,2 | 0 | 0 | 70 | 0,6 | 938,9 |
| 27 | Santa María | 03-09-2026 06:30 | 5,4 | 92,6 | 0 | 0 | 70 | 0,6 | 938,9 |
| 26 | Santa María | 03-09-2026 06:15 | 4,8 | 90,1 | 0 | 0 | 70 | 0,6 | 938,9 |
| 25 | Santa María | 03-09-2026 06:00 | 5,1 | 88,4 | 0 | 0 | 70 | 0,6 | 938,7 |
| 24 | Santa María | 03-09-2026 05:45 | 5,7 | 88,1 | 0 | 0 | 70 | 0,6 | 938,5 |
| 23 | Santa María | 03-09-2026 05:30 | 6,4 | 87 | 0 | 0 | 70 | 0,6 | 938,6 |
| 22 | Santa María | 03-09-2026 05:15 | 6,7 | 86,3 | 0 | 0 | 86 | 0,6 | 938,8 |
| 21 | Santa María | 03-09-2026 05:00 | 6,8 | 86,7 | 0 | 0 | 88 | 0,6 | 938,7 |
| 20 | Santa María | 03-09-2026 04:45 | 6,9 | 85,8 | 0 | 0 | 88 | 0,6 | 938,8 |
| 19 | Santa María | 03-09-2026 04:30 | 5,7 | 89,8 | 0 | 0 | 88 | 0,6 | 938,8 |
| 18 | Santa María | 03-09-2026 04:15 | 6,2 | 86,6 | 0 | 0 | 88 | 0,6 | 938,7 |
| 17 | Santa María | 03-09-2026 04:00 | 6,6 | 87,9 | 0 | 0 | 88 | 0,6 | 938,7 |
| 16 | Santa María | 03-09-2026 03:45 | 7,1 | 85,6 | 0 | 0 | 88 | 0,6 | 938,6 |
| 15 | Santa María | 03-09-2026 03:30 | 7,3 | 85,1 | 0 | 0 | 101 | 0,6 | 938,4 |
| 14 | Santa María | 03-09-2026 03:15 | 6,7 | 89,3 | 0 | 0 | 108 | 0,6 | 938,4 |
| 13 | Santa María | 03-09-2026 03:00 | 6 | 87,7 | 0 | 0 | 108 | 0,6 | 938,6 |
| 12 | Santa María | 03-09-2026 02:45 | 6,5 | 86,4 | 0 | 0 | 108 | 0,6 | 938,5 |
| 11 | Santa María | 03-09-2026 02:30 | 7,9 | 84,2 | 0 | 0 | 108 | 0,6 | 938,6 |
| 10 | Santa María | 03-09-2026 02:15 | 7,7 | 84,6 | 0 | 0 | 108 | 0,6 | 938,6 |
| 9 | Santa María | 03-09-2026 02:00 | 7,6 | 86,1 | 0 | 0 | 108 | 0,6 | 938,5 |
| 8 | Santa María | 03-09-2026 01:45 | 7 | 87,6 | 0 | 0 | 108 | 0,6 | 938,7 |
| 7 | Santa María | 03-09-2026 01:30 | 7,6 | 85,3 | 0 | 0 | 108 | 0,6 | 938,6 |
| 6 | Santa María | 03-09-2026 01:15 | 8 | 84,2 | 0 | 0 | 107 | 0,6 | 938,4 |
| 5 | Santa María | 03-09-2026 01:00 | 8,5 | 83,2 | 0 | 0 | 107 | 0,6 | 938,4 |
| 4 | Santa María | 03-09-2026 00:45 | 9,1 | 81,1 | 0 | 0 | 122 | 0,6 | 938,4 |
| 3 | Santa María | 03-09-2026 00:30 | 9,5 | 78,3 | 0 | 0 | 132 | 0,6 | 938,4 |
| 2 | Santa María | 03-09-2026 00:15 | 9,8 | 79,4 | 0 | 0 | 132 | 0,6 | 938,2 |
| 1 | Santa María | 03-09-2026 00:00 | 9,9 | 79,2 | 0 | 0 | 177 | 0,6 | 938,4 |